Regional Weather Roundup
Issued by NWS

Home | Current Version | Previous Version | Text Only | Print | Product List | Glossary Off
Versions: 1 2 3 4 5 6 7 8 9 10 11 12 13 14 15 16 17 18 19 20 21 22 23 24 25 26 27 28 29 30 31 32 33 34 35 36 37 38 39 40 41 42 43 44 45 46 47 48 49 50

000
ASUS43 KOAX 200102
RWRNE

WEATHER ROUNDUP FOR NEBRASKA
NATIONAL WEATHER SERVICE OMAHA NE
700 PM CST SUN NOV 19 2017

NOTES: SATELLITE DATA IS BEING USED TO AUGMENT CLOUD COVER ABOVE
       12000 FEET.
       "FAIR" INDICATES FEW OR NO CLOUDS BELOW 12,000 FEET WITH NO
       SIGNIFICANT WEATHER AND/OR OBSTRUCTIONS TO VISIBILITY.


NEZ001>004-019>022-054>056-200200-
NEBRASKA PANHANDLE

CITY           SKY/WX    TMP DP  RH WIND       PRES   REMARKS
SCOTTSBLUFF    CLOUDY    39  10  30 W8        29.89F WCI  33
ALLIANCE       CLOUDY    33  10  38 SW13      29.86S WCI  24
CHADRON        CLOUDY    37  19  48 SW12      29.82F WCI  29
GORDON         FAIR      33  21  60 CALM      29.82F
KIMBALL        CLOUDY    33  15  46 W8        29.94R WCI  26
SIDNEY         CLOUDY    30  18  60 SW9       29.92F WCI  22
$$

NEZ057>060-069>072-079>082-200200-
SOUTHWEST NEBRASKA

CITY           SKY/WX    TMP DP  RH WIND       PRES   REMARKS
NORTH PLATTE   CLOUDY    38  23  55 SE5       29.91F WCI  34
IMPERIAL       CLOUDY    41  22  46 S5        29.92F
LEXINGTON      CLOUDY    38  25  58 S9        29.92S WCI  32
MCCOOK         CLOUDY    46  24  42 W6        29.93F
OGALLALA       CLOUDY    38  20  49 CALM      29.91S
$$

NEZ005>010-023>029-035>040-094-200200-
NORTH CENTRAL NEBRASKA

CITY           SKY/WX    TMP DP  RH WIND       PRES   REMARKS
VALENTINE      CLOUDY    37  22  54 S5        29.84F WCI  33
AINSWORTH      CLOUDY    36  23  60 S7        29.85F WCI  30
BROKEN BOW     CLOUDY    34  23  64 SW3       29.90S
O`NEILL        CLOUDY    39  27  62 SW7       29.88S WCI  34
ORD            CLOUDY    37  24  59 SW5       29.89F WCI  33
THEDFORD       CLOUDY    43  21  41 SW6       29.87F
$$

NEZ041-046>049-061>064-073>077-083>087-200200-
SOUTH CENTRAL NEBRASKA

CITY           SKY/WX    TMP DP  RH WIND       PRES   REMARKS
GRAND ISLAND   CLOUDY    42  26  53 S9        29.94F
AURORA         CLOUDY    45  23  42 S9        29.93F
HASTINGS       CLOUDY    48  21  34 S10       29.95F
HEBRON         CLEAR     47  23  38 S13       29.98F
HOLDREGE       CLOUDY    44  24  45 SW8       29.94S
KEARNEY        CLOUDY    43  23  45 S6        29.94F
YORK           CLOUDY    43  25  49 CALM      29.95S
$$

NEZ011>018-030>034-042>045-200200-
NORTHEAST NEBRASKA

CITY           SKY/WX    TMP DP  RH WIND       PRES   REMARKS
NORFOLK        CLOUDY    44  26  49 S10       29.90F
ALBION         CLOUDY    43  26  50 SE3       29.91S
BLAIR          CLEAR     43  27  53 S6        29.95S
COLUMBUS       CLEAR     44  26  49 S7        29.93F
FREMONT        CLEAR     46  26  46 S7        29.94F
TEKAMAH        CLOUDY    33  24  69 S8        29.93F WCI  26
WAYNE          CLOUDY    40  24  51 S5        29.90F
$$

NEZ050>053-065>068-078-088>093-200200-
SOUTHEAST NEBRASKA

CITY           SKY/WX    TMP DP  RH WIND       PRES   REMARKS
LINCOLN        CLEAR     41  24  51 S7        29.97F
OMAHA EPPLEY   PTCLDY    41  26  55 S12       29.96F
BEATRICE       CLEAR     45  25  46 S8        29.99S
FALLS CITY     CLEAR     46  24  42 S6        30.01F
NEBRASKA CITY  CLEAR     43  28  54 S10       29.99S
PLATTSMOUTH    CLEAR     43  27  53 S9        29.98S
$$

NEZ044-045-051>053-067-200200-
OMAHA AREA

CITY           SKY/WX    TMP DP  RH WIND       PRES   REMARKS
OMAHA EPPLEY   PTCLDY    41  26  55 S12       29.96F
BLAIR          CLEAR     43  27  53 S6        29.95S
FREMONT        CLEAR     46  26  46 S7        29.94F
MILLARD        CLEAR     46  27  47 SE5       29.97S
OFFUTT AFB     CLEAR     39  25  57 S6        29.97S WCI  35
PLATTSMOUTH    CLEAR     43  27  53 S9        29.98S
WAHOO          FAIR      42  25  51 S7        29.95F
$$




USA.gov is the U.S. government's official web portal to all federal, state and local government web resources and services.